Location: Barcelona
(41.3830°N, 2.1830°E)
Time: 15:40:02
(UTC+02:00)

ISS - Pass Details

Date: 30 March 2020
Orbit: 416 x 423 km, 51.6° (Epoch: 02 April)

Event Time Altitude Azimuth Distance (km) Brightness Sun altitude
Rises 20:54:48 0° 305° (NW) 2,360 1.5 -8.2°
Reaches altitude 10° 20:57:34 10° 330° (NNW) 1,496 -0.3 -8.7°
Maximum altitude 20:59:38 15° 8° (N) 1,218 -1.3 -9.1°
Drops below altitude 10° 21:01:42 10° 46° (NE) 1,496 -1.3 -9.5°
Enters shadow 21:02:46 - 58° (ENE) 1,793 -1.0 -9.7°
